Flag for Germany Weather past 2 weeks in Gifhorn, Lower Saxony, Germany

Now
54 °F

Passing clouds.


Feels Like: 51 °F
Forecast: 44 / 60 °F
Wind: 8 mph from West

Location: Celle Airport

Current Time: Sep 22, 2014 at 6:18:20 AM

Latest Report: Sep 22, 2014 at 5:20 AM


Visibility: N/A

Pressure: 29.92 "Hg

Humidity: 82%

Dew point: 48 °F

Location of GifhornLocation

Historic Weather in Gifhorn — Graph

°F

Gifhorn temperature yesterday

Maximum temperature yesterday: 66 °F (at 4:20 PM)
Minimum temperature yesterday: 55 °F (at 8:20 PM)
Average temperature yesterday: 60 °F

Past Weeks' High & Low Weather Summary

 TemperatureHumidityPressure
High75 °F (Sep 16, 3:20 PM)100% (Sep 7, 4:20 AM)30.21 "Hg (Sep 7, 4:20 AM)
Low48 °F (Sep 8, 6:20 AM)47% (Sep 17, 4:20 PM)29.89 "Hg (Sep 7, 4:20 AM)
Average61 °F84%30.03 "Hg
* Reported Sep 7 4:20 AM — Sep 22 4:20 AM, Gifhorn, Weather by CustomWeather, © 2014

Note: Actual official high and low records may vary slightly from our data, if they occured in-between our weather recording intervals... More about our weather records

Advertising

Gifhorn weather history for previous 24 hours

 ConditionsComfort  
Time TempWeatherWind HumidityBarometerVisibility
4:20 AM
Sep 22
52 °FPassing clouds.8 mph94%29.92 "HgN/A
3:20 AM52 °FPassing clouds.7 mph94%29.95 "HgN/A
2:20 AM54 °FPassing clouds.7 mph88%29.95 "HgN/A
1:20 AM54 °FPassing clouds.7 mph94%29.95 "HgN/A
12:20 AM55 °FPartly cloudy.7 mph88%29.95 "HgN/A
11:20 PM
Sep 21
55 °FPartly cloudy.9 mph88%29.95 "HgN/A
10:20 PM55 °FPartly cloudy.7 mph82%29.95 "HgN/A
9:20 PM55 °FPartly cloudy.6 mph82%29.95 "HgN/A
8:20 PM55 °FBroken clouds.5 mph82%29.95 "HgN/A
7:20 PM59 °FPartly sunny.7 mph72%29.95 "HgN/A
6:20 PM61 °FBroken clouds.13 mph63%29.92 "HgN/A
5:20 PM64 °FScattered clouds.10 mph49%29.92 "HgN/A
4:20 PM66 °FScattered clouds.8 mph49%29.92 "HgN/A
3:20 PM64 °FBroken clouds.9 mph64%29.92 "HgN/A
2:20 PM64 °FPartly sunny.10 mph64%29.92 "HgN/A
1:20 PM64 °FPartly sunny.9 mph68%29.92 "HgN/A
12:20 PM63 °FBroken clouds.9 mph77%29.92 "HgN/A
12:04 PM63 °FBroken clouds.8 mph77%29.92 "Hg5 mi
11:20 AM61 °FLight rain. Fog.9 mph94%29.92 "Hg2 mi
10:20 AM61 °FLight rain. Fog.6 mph94%29.92 "Hg2 mi
9:20 AM61 °FFog.3 mph94%29.92 "Hg1 mi
8:20 AM61 °FFog.3 mph94%29.89 "Hg1 mi
7:20 AM59 °FFog.3 mph100%29.89 "Hg1 mi
6:20 AM59 °FFog.2 mph100%29.89 "Hg1 mi
Weather by CustomWeather, © 2014

See weather overviewHow to use our weather pages